Theta_e
330 331 332 331 331 330 330 331 333 333 334 336 340 341 340 339 339 342 344 347 348 345 342 341 341 338 339 338 336 334 334 332 330 331 331 331 333 335 332 332 330 328 326 326
330 331 330 331 330 330 330 336 339 334 334 337 338 339 339 339 340 341 342 344 345 344 343 340 338 337 336 334 333 331 329 329 326 325 324 324 324 327 326 326 324 322 323 321
330 331 330 330 330 334 335 331 332 335 334 336 340 342 340 341 341 341 342 343 343 341 340 338 336 334 332 331 330 328 327 326 326 325 323 323 322 322 322 321 321 319 319 317
331 330 329 330 331 329 333 331 331 332 336 341 338 344 346 342 342 342 342 341 339 336 336 335 333 331 328 325 325 326 326 325 324 324 322 321 320 319 318 317 317 316 317 316
331 329 329 332 331 330 332 332 333 333 335 339 341 344 343 339 342 341 340 338 336 334 333 332 330 328 325 324 323 324 325 324 323 322 321 319 318 317 316 316 316 316 316 316
331 332 332 332 331 331 332 335 336 342 338 347 341 343 343 341 342 341 339 337 335 333 332 330 327 325 324 325 324 323 323 322 322 321 319 318 317 317 316 316 315 315 315 315
331 332 332 331 331 335 334 335 339 349 343 344 338 333 343 339 338 339 338 337 334 332 331 329 328 325 324 325 324 323 322 321 320 319 318 316 316 315 315 316 316 316 315 315
333 334 332 332 331 330 330 334 337 338 333 330 337 343 343 339 339 337 336 336 334 332 330 329 327 325 325 325 324 323 321 321 318 318 315 316 315 315 315 315 316 315 315 315
334 336 333 332 331 331 331 336 335 334 335 337 339 340 339 339 339 337 336 335 334 332 330 328 326 326 325 324 324 322 321 320 318 316 315 315 314 315 315 315 315 315 315 315
333 336 332 333 331 335 333 331 332 336 336 333 335 343 347 341 340 338 337 336 334 332 329 327 325 325 325 324 323 322 320 319 317 315 315 315 314 314 314 316 316 316 315 316
333 332 335 331 335 331 333 336 333 334 338 335 333 340 335 338 339 338 336 334 334 331 329 327 324 325 324 323 322 321 320 318 315 315 315 315 314 314 316 316 315 315 315 316
335 334 334 336 333 332 331 331 333 335 335 334 334 341 336 336 338 337 335 333 332 330 328 326 324 325 324 322 321 320 319 317 315 315 315 315 314 316 316 316 316 315 316 316
332 333 336 339 339 335 332 331 331 332 339 340 338 344 337 337 338 336 334 333 332 330 329 327 324 324 323 322 321 320 318 315 315 315 315 315 315 316 316 316 316 315 315 315
340 337 335 335 331 329 333 332 332 334 339 337 338 339 340 339 338 337 335 332 331 330 327 327 325 324 322 321 321 319 318 315 315 315 314 314 314 315 316 317 316 316 315 315
340 335 333 332 330 330 331 331 332 332 333 335 336 334 338 339 338 337 335 332 331 329 326 326 326 324 321 321 320 319 318 316 315 315 314 314 314 314 315 317 316 316 316 315
344 337 334 334 333 331 331 332 332 332 333 334 335 342 337 337 336 337 335 332 331 328 326 325 325 323 322 321 320 320 318 316 315 314 314 314 314 314 315 315 316 316 315 315
338 339 337 336 336 332 333 334 333 332 334 336 338 339 336 336 336 336 334 332 330 326 326 325 326 324 323 321 320 320 317 316 316 315 314 314 314 315 315 315 316 316 315 315
339 341 337 336 336 335 339 335 332 333 336 336 336 336 334 335 335 333 331 333 330 326 325 324 325 324 322 321 320 319 317 317 316 315 315 314 314 315 315 315 316 317 317 315
339 340 337 335 334 334 334 336 335 336 341 338 334 334 333 333 333 333 332 331 327 326 324 324 324 323 323 321 320 319 318 317 315 315 315 314 314 314 314 315 315 316 317 316
340 340 337 334 336 334 342 336 335 335 338 335 330 332 333 333 333 337 333 328 326 325 324 324 324 323 323 321 321 320 318 317 315 314 315 314 314 315 315 316 315 316 317 317
339 337 335 334 336 334 339 336 335 335 341 329 328 328 332 332 338 335 331 327 326 324 325 324 324 324 322 321 321 320 318 317 315 315 315 315 315 315 316 316 316 315 317 317
337 337 335 335 335 335 338 336 333 337 333 331 330 329 329 334 334 332 328 327 325 324 324 324 324 324 323 321 320 320 319 317 315 315 315 315 316 316 316 316 316 317 316 317
335 335 343 338 340 341 337 341 342 335 333 332 332 330 327 332 332 330 326 327 325 323 323 322 323 324 323 322 321 320 319 317 316 316 316 316 316 315 316 316 317 316 316 315
336 339 335 334 334 338 338 338 338 333 334 334 333 331 328 330 331 330 327 328 325 322 323 322 322 323 324 323 322 321 319 316 316 317 316 316 316 315 316 316 316 316 316 315
335 339 336 335 335 337 337 337 336 333 333 334 333 331 328 328 330 329 328 328 325 322 322 322 322 322 323 323 322 321 319 318 318 317 317 317 315 316 316 316 316 316 316 315
330 332 335 336 339 338 337 336 336 335 333 334 332 331 328 326 328 327 328 328 325 323 322 323 323 323 323 323 322 321 320 319 319 318 317 316 315 315 315 315 316 315 315 315
Wind_Speed
15 6 13 12 12 11 5 4 8 6 3 7 11 11 11 9 13 15 15 15 14 14 12 9 10 16 15 17 17 17 17 19 21 19 19 19 16 13 13 12 12 13 18 17
8 6 7 7 5 4 4 23 20 5 5 6 11 11 11 12 13 15 14 13 11 11 12 14 14 15 15 16 16 18 19 20 22 21 20 19 19 12 13 10 11 16 15 18
3 3 4 5 8 18 20 11 4 2 6 7 21 9 6 15 15 14 14 11 11 11 13 12 13 13 14 15 16 19 19 20 22 24 21 20 19 16 17 17 17 17 11 13
3 9 4 11 1 12 9 9 6 4 11 6 15 4 6 3 14 11 11 11 12 11 13 11 11 12 14 15 16 18 19 20 22 23 22 22 21 19 18 18 17 14 11 11
6 10 12 6 9 10 9 10 8 5 14 11 14 2 3 11 16 11 11 10 11 12 10 10 11 13 16 16 16 16 16 19 21 22 23 23 22 19 17 17 15 14 12 12
6 7 9 11 3 4 7 5 4 19 9 6 21 14 8 7 7 10 11 9 8 9 9 11 13 13 15 15 15 14 16 18 20 21 22 22 20 18 18 19 17 17 16 16
9 10 6 4 6 13 13 9 2 5 4 4 7 3 10 8 8 11 10 8 7 5 10 10 13 16 15 15 15 15 17 17 21 22 22 20 19 17 17 20 20 23 20 21
11 9 6 2 7 12 15 8 8 14 11 9 16 5 7 12 12 10 9 7 6 9 10 10 13 14 15 13 14 15 16 19 19 19 20 17 18 19 20 17 17 16 18 17
6 11 7 6 4 6 10 6 11 9 17 10 4 11 12 9 10 10 8 6 6 6 6 9 12 12 12 12 10 14 16 14 13 19 17 17 16 15 14 15 15 15 17 18
4 3 5 8 9 4 4 6 8 6 7 12 6 14 7 10 10 8 6 5 6 3 5 9 11 11 12 13 12 14 15 11 15 17 15 15 14 14 15 14 14 15 17 17
4 4 7 5 5 10 4 2 3 4 5 7 8 7 6 8 11 8 5 5 5 1 8 9 11 11 12 13 14 13 15 17 17 15 13 13 11 12 13 16 17 17 16 17
3 3 3 4 5 1 3 6 4 7 7 3 7 4 5 7 12 8 6 4 7 5 7 10 11 11 12 13 12 13 14 15 16 14 13 13 10 12 13 14 16 17 17 17
6 5 8 3 2 3 4 5 1 1 9 6 10 3 4 9 10 8 6 8 5 3 8 9 11 11 12 10 11 12 14 15 14 12 13 12 11 14 12 14 15 15 16 17
3 1 7 7 10 6 3 4 1 2 8 9 7 7 8 8 8 6 7 4 2 4 6 10 9 10 11 9 9 11 12 13 13 12 12 11 12 14 14 13 12 12 15 15
3 7 5 4 4 6 4 5 4 7 7 6 11 8 7 10 8 8 6 3 2 4 6 7 6 8 10 9 9 9 10 11 12 11 11 10 10 14 16 14 13 13 14 14
4 3 5 6 4 7 7 2 6 2 4 5 6 13 7 6 8 9 7 3 2 6 5 7 7 7 9 9 9 9 9 9 10 10 10 10 11 9 13 15 14 14 14 13
8 4 5 9 1 6 10 7 2 2 3 5 9 9 4 3 7 7 6 2 5 4 5 5 5 6 6 8 8 9 7 8 9 9 9 10 11 9 10 14 13 13 13 13
8 7 5 5 3 9 9 5 3 4 2 2 4 4 3 2 7 8 4 8 4 3 5 5 5 5 5 7 8 8 7 7 9 9 9 10 10 11 11 12 14 12 10 12
7 7 3 6 10 5 10 6 3 2 5 2 6 2 2 3 5 5 6 5 5 5 4 5 5 5 4 6 6 7 6 8 8 7 8 9 9 10 11 12 13 12 11 10
4 6 5 8 6 5 10 9 5 1 4 5 4 2 1 3 10 9 8 7 7 4 3 4 5 4 4 5 5 7 7 9 8 7 7 7 8 9 10 10 11 12 9 8
9 7 8 8 6 1 11 9 6 7 6 5 5 3 2 4 9 10 7 8 6 4 4 5 3 4 2 3 4 6 7 8 7 6 6 7 7 8 7 9 9 10 9 7
5 5 7 6 5 9 10 8 4 7 7 7 4 4 2 6 7 7 8 7 5 4 5 4 3 4 2 1 4 5 6 6 6 6 6 6 7 8 8 8 9 7 8 6
7 8 4 4 5 3 8 2 10 9 7 6 5 4 2 7 8 6 6 6 4 3 3 3 2 3 2 1 3 5 4 4 5 6 6 6 8 9 9 8 7 11 5 2
7 3 5 7 9 5 9 3 9 9 8 7 7 6 5 8 8 7 7 6 4 4 4 4 3 3 3 3 2 3 4 3 4 5 6 7 4 8 7 12 9 10 10 9
6 2 4 8 11 4 8 11 9 10 9 9 8 8 5 8 8 8 6 6 3 3 4 3 3 3 3 3 3 3 3 3 5 5 6 7 9 4 8 4 10 11 9 9
8 8 6 3 9 2 6 8 11 11 11 11 10 10 8 8 9 9 7 7 5 5 4 4 4 3 4 4 4 4 4 4 5 7 9 8 8 10 11 10 3 10 10 8
Wind_Direction
207 226 270 26 15 0 13 19 88 91 11 89 94 106 96 85 100 96 98 82 85 71 81 85 64 49 46 45 38 29 24 16 7 7 4 1 354 353 357 7 7 6 3 358
222 221 58 43 340 286 332 55 332 122 171 139 124 106 109 102 83 86 87 90 96 108 89 73 51 61 52 44 36 29 23 22 18 10 9 1 350 352 356 15 34 15 1 360
211 64 91 236 234 78 308 9 44 119 177 197 85 3 257 112 103 101 103 104 92 65 68 72 72 56 46 44 34 30 27 25 24 15 13 6 359 357 356 350 354 351 0 356
294 105 228 241 146 341 126 339 296 225 225 212 180 164 63 70 113 107 93 75 79 79 83 77 60 45 39 28 34 30 27 24 20 18 12 5 1 358 352 351 354 349 5 4
127 195 219 151 30 348 15 309 295 208 242 126 333 283 285 283 129 109 91 84 84 84 67 59 46 37 23 23 27 30 26 22 17 14 12 6 4 359 359 359 1 358 9 12
128 35 5 59 77 354 298 282 345 12 315 154 226 240 152 166 166 119 101 83 74 79 77 58 32 33 26 24 18 26 19 19 13 11 9 9 5 5 8 0 4 357 358 1
175 154 114 314 290 351 271 313 221 239 248 270 175 284 88 136 90 92 96 96 80 69 57 36 32 16 25 24 15 8 16 13 11 4 8 10 8 8 6 4 5 351 355 355
196 144 160 127 343 337 308 328 321 339 335 345 52 7 157 120 113 106 96 86 81 47 38 23 39 16 16 14 15 6 7 27 10 2 7 13 9 4 4 358 350 351 347 347
156 143 119 68 349 311 353 327 5 303 266 273 188 112 93 130 134 134 107 98 81 56 40 28 34 27 5 2 26 12 8 27 9 7 7 24 8 5 0 352 349 353 348 344
138 178 163 115 257 165 314 349 304 242 317 323 190 83 157 187 151 126 129 121 96 21 41 38 37 29 6 5 19 18 2 31 15 5 18 24 9 1 356 349 355 352 352 351
115 281 123 210 322 358 295 198 346 282 310 322 312 98 28 139 146 151 118 97 112 265 33 37 42 26 17 12 11 25 5 10 11 3 48 26 5 354 356 2 5 6 358 357
122 247 280 83 92 62 3 358 331 328 353 6 275 97 50 108 119 133 120 132 77 20 26 34 36 28 29 17 14 20 13 13 10 3 63 30 6 358 2 4 10 9 4 7
158 198 244 312 164 190 270 83 315 243 270 29 295 62 143 118 124 137 141 103 159 318 43 41 21 31 36 21 21 17 18 12 11 1 30 28 3 0 1 9 10 6 4 5
300 259 286 355 24 352 175 226 308 314 283 344 25 115 132 142 155 149 131 167 91 59 51 48 22 29 40 23 26 18 24 10 10 2 35 27 14 351 3 4 10 13 5 6
227 224 267 27 342 286 335 291 326 313 331 298 8 325 73 150 159 151 147 181 111 52 41 48 41 26 29 27 15 21 24 13 3 7 17 24 29 358 6 9 20 25 9 9
207 222 271 255 230 288 271 183 277 249 312 262 283 48 17 64 121 133 184 184 96 60 48 47 47 39 27 23 9 17 24 9 359 3 11 12 12 20 4 358 25 23 11 13
189 161 237 280 142 303 255 239 96 333 260 352 327 41 44 101 128 172 173 164 62 63 54 49 63 54 29 20 14 16 20 358 360 357 16 8 11 14 19 359 14 22 13 13
192 190 256 281 321 256 73 45 18 302 3 334 281 18 9 186 152 209 144 102 91 71 39 73 75 78 44 23 20 14 11 359 6 3 13 14 10 12 7 13 9 21 17 20
198 213 226 290 273 225 177 139 138 250 90 77 355 352 341 115 172 134 91 89 84 84 80 76 82 87 66 30 14 15 1 12 9 17 13 21 16 15 11 10 8 8 15 18
183 249 266 280 294 284 91 102 112 145 234 96 8 317 250 176 242 137 138 128 109 91 96 114 114 115 71 39 13 18 3 12 11 13 11 17 16 8 8 10 5 355 14 20
199 242 246 257 233 342 115 131 134 245 100 96 59 29 199 240 73 110 120 106 117 116 133 133 151 111 97 53 12 21 11 13 5 1 360 7 4 341 6 355 3 358 4 20
223 230 236 235 289 272 124 143 244 108 132 106 90 44 188 117 146 149 125 116 127 154 143 188 162 147 160 57 9 16 19 358 2 352 358 359 351 345 354 346 354 338 359 359
243 289 359 331 36 110 172 20 125 154 144 150 144 132 154 167 181 174 135 137 127 171 166 183 175 171 187 195 3 356 7 353 358 356 353 346 350 344 338 321 325 330 343 8
193 174 266 290 259 193 188 171 164 177 165 163 157 165 159 182 182 179 150 145 166 160 197 186 194 204 202 225 278 332 338 338 335 350 345 335 317 336 335 324 337 342 334 350
11 142 246 261 255 174 203 193 191 189 175 177 166 173 165 179 188 179 164 172 189 180 181 197 219 230 233 209 257 288 307 309 313 318 322 298 317 302 299 306 332 332 341 321
207 262 230 317 16 274 53 198 197 195 196 190 182 177 170 178 179 183 175 178 197 193 196 197 215 238 261 246 248 262 276 293 301 302 301 339 316 320 315 316 300 308 283 296